User: anonymous
Location: Irma
(52.9170°N, 111.2330°W)
Time: 04:20:11
(UTC-06:00)
Language:

Cosmos 1633 Rocket - Orbit

View from above orbital plane
View from above orbital plane
View from above satellite
View from above satellite

Ground track
Ground track

The orbit data is extracted from the following two-line orbital elements,

1 15593U 85020B   14208.49513947  .00000233  00000-0  25299-4 0  7138
2 15593 082.5396 170.2478 0010161 286.0893 213.3208 14.83713583587790
Epoch (UTC): 27 July 2014 11:53:00
Eccentricity: 0.0010161
inclination: 82.5396°
perigee height: 610 km
apogee height: 625 km
right ascension of ascending node: 170.2478°
argument of perigee: 286.0893°
revolutions per day: 14.83713583
mean anomaly at epoch: 213.3208°
orbit number at epoch: 58779

The dashed part of the orbit path shows where the satellite is in the earth's shadow,  

DLR